Regional Weather Roundup
Issued by NWS

Home | Current Version | Previous Version | Graphics & Text | Print | Product List | Glossary On
Versions: 1 2 3 4 5 6 7 8 9 10 11 12 13 14 15 16 17 18 19 20 21 22 23 24 25 26 27 28 29 30 31 32 33 34 35 36 37 38 39 40 41 42 43 44 45 46 47 48 49
000
ASUS43 KDMX 151007
RWRIA

WEATHER ROUNDUP FOR IOWA
NATIONAL WEATHER SERVICE DES MOINES IA
500 AM CDT MON SEP 15 2014

NOTE: "FAIR" INDICATES FEW OR NO CLOUDS BELOW 12,000 FEET WITH NO
SIGNIFICANT WEATHER AND/OR OBSTRUCTIONS TO VISIBILITY.

* - THESE STATIONS ARE NOT NWS STATIONS...THUS NOT UNDER NWS
QUALITY CONTROL.  THEY ALSO DO NOT REPORT WEATHER SUCH
AS PRECIPITATION OR FOG.

IAZ001>003-012>014-020>022-031>034-043>046-151100-
   NORTHWEST IOWA

CITY           SKY/WX    TMP DP  RH WIND       PRES   REMARKS
CARROLL *      MOCLDY    52  52 100 CALM      30.07F
CHEROKEE *     CLOUDY    52  48  87 NE8       30.11S
DENISON *      CLEAR     54  54 100 CALM      30.05S
LE MARS *        N/A     52  48  87 N8        30.15R
ORANGE CITY *  CLOUDY    52  46  82 NE7G17    30.15R
SHELDON *      LGT RAIN  48  48 100 N13       30.14S
SIOUX CITY     CLOUDY    54  46  74 N12       30.11R
SPENCER        LGT RAIN  50  47  89 NE13      30.14S
STORM LAKE *   CLOUDY    52  48  87 NE12G21   30.11R
$$

IAZ055>058-069>071-079>083-090>094-151100-
   SOUTHWEST IOWA

CITY           SKY/WX    TMP DP  RH WIND       PRES   REMARKS
ATLANTIC *     CLOUDY    59  57  94 E3        30.04F
AUDUBON *      CLOUDY    59  55  88 CALM      30.07S
CLARINDA *     CLOUDY    61  59  94 NE6       30.05F
COUNCIL BLFS * CLOUDY    59  59 100 E7        30.02F
CRESTON *      CLOUDY    57  57 100 SE8       30.05F
HARLAN  *      CLOUDY    57  57 100 CALM      30.09R
LAMONI         CLOUDY    59  57  93 NE6       30.06S
SHENANDOAH *   CLOUDY    61  59  94 NE8G14    30.03F
$$

IAZ047>049-059>061-072>074-084-151100-
   CENTRAL IOWA

CITY           SKY/WX    TMP DP  RH WIND       PRES   REMARKS
AMES           MOCLDY    55  54  96 CALM      30.08F
ANKENY *       LGT RAIN  57  55  94 S5        30.07R
CHARITON *     CLOUDY    59  59 100 SE5       30.07S
DES MOINES     LGT RAIN  59  55  87 SE7       30.07S
GRINNELL*      CLOUDY    55  54  94 E6        30.06F
KNOXVILLE *    CLOUDY    57  55  94 CALM      30.07R
MARSHALLTOWN   MOCLDY    51  49  92 E7        30.07F
PELLA *        CLOUDY    57  55  94 CALM      30.11R
PERRY *        CLOUDY    59  54  82 CALM      30.07S
$$

IAZ004>006-015-016-023>025-035-036-151100-
   NORTH CENTRAL IOWA

CITY           SKY/WX    TMP DP  RH WIND       PRES   REMARKS
ALGONA *       CLOUDY    52  48  87 NE8       30.13S
CLARION *        N/A     54  46  76 NE8       30.10F
ESTHERVILLE    LGT RAIN  48  48 100 N8        30.15R FOG
FORT DODGE *     N/A    N/A N/A N/A MISG        N/A
MASON CITY     LGT RAIN  51  49  92 NE5       30.14S
FOREST CITY *  DRIZZLE   50  48  93 NE5       30.13S
IOWA FALLS *   CLOUDY    52  48  87 CALM      30.10F
$$

IAZ007>011-017>019-026>030-037>042-050>054-066-151100-
   NORTHEAST IOWA

CITY           SKY/WX    TMP DP  RH WIND       PRES   REMARKS
CEDAR RAPIDS   CLOUDY    55  52  89 SE3       30.12R
CHARLES CITY * MOCLDY    54  46  76 NE8G15    30.12S
CLINTON *      CLOUDY    54  48  82 SE3       30.15F
DECORAH *      LGT RAIN  52  48  87 N5        30.13R
DUBUQUE        CLOUDY    50  48  93 S3        30.13S
MONTICELLO *   CLOUDY    54  52  94 CALM      30.12S
OELWEIN *      MOCLDY    52  50  93 SE5       30.12F
WATERLOO       CLOUDY    51  49  92 SE3       30.09F
$$

IAZ064-065-067-068-078-151100-
   EAST CENTRAL IOWA

CITY           SKY/WX    TMP DP  RH WIND       PRES   REMARKS
DAVENPORT      CLOUDY    55  50  83 SE5       30.13S
IOWA CITY      CLOUDY    57  53  86 S9        30.16R
MT. PLEASANT * CLOUDY    59  52  77 CALM      30.12S
MUSCATINE *    CLOUDY    55  54  94 CALM      30.12F
QUAD CITIES    CLOUDY    56  50  80 E5        30.12F
$$

IAZ062-063-075>077-085>089-095>099-151100-
   SOUTHEAST IOWA

CITY           SKY/WX    TMP DP  RH WIND       PRES   REMARKS
BURLINGTON     CLOUDY    58  53  84 S6        30.12F
FAIRFIELD *    RAIN      57  54  88 CALM      30.13R
FORT MADISON * CLOUDY    61  54  77 CALM      30.13S
KEOKUK *       CLOUDY    59  54  82 CALM      30.11F
OSKALOOSA *    LGT RAIN  55  55 100 CALM      30.08F
CENTERVILLE *  CLOUDY    57  57 100 E6        30.09F
OTTUMWA        LGT RAIN  56  54  93 S6        30.08F
WASHINGTON *   CLOUDY    57  55  94 CALM      30.13R
$$

ABBREVIATIONS USED IN REMARKS
   TC - TEMPERATURES IN CELSIUS
  WCI - WIND CHILL INDEX
   HX - HEAT INDEX
  VSB - VISIBILITY
$$




USA.gov is the U.S. government's official web portal to all federal, state and local government web resources and services.